Regional Weather Roundup
Issued by NWS

Home | Current Version | Previous Version | Graphics & Text | Print | Product List | Glossary On
Versions: 1 2 3 4 5 6 7 8 9 10 11 12 13 14 15 16 17 18 19 20 21 22 23 24 25 26 27 28 29 30 31 32 33 34 35 36 37 38 39 40 41 42 43 44 45 46 47 48 49 50
000
ASUS43 KTOP 301059
RWRKS

WEATHER ROUNDUP FOR KANSAS
NATIONAL WEATHER SERVICE GOODLAND KS
500 AM CST FRI JAN 30 2015

NOTE:  "FAIR" INDICATES FEW OR NO CLOUDS BELOW 12,000 FEET WITH NO
SIGNIFICANT WEATHER AND/OR OBSTRUCTIONS TO VISIBILITY.

KSZ001>006-013>018-027>032-041>047-301200-
NORTHWEST KANSAS

CITY           SKY/WX    TMP DP  RH WIND       PRES   REMARKS
GOODLAND       MOCLDY    29  21  72 S12       30.37F WCI  19
HAYS           FAIR      18   7  62 W5        30.48S
HILL CITY      PTCLDY    17  13  84 W3        30.46F
RUSSELL        CLEAR     19  17  92 SW5       30.47S
$$

KSZ061>065-074>080-084>089-301200-
SOUTHWEST KANSAS

CITY           SKY/WX    TMP DP  RH WIND       PRES   REMARKS
DODGE CITY     MOCLDY    26  19  74 S6        30.46F
ELKHART          N/A     35  23  61 S7          N/A
GARDEN CITY    CLOUDY    27  21  78 S7        30.44F
LIBERAL        CLOUDY    34  23  64 S5        30.47F
$$

KSZ066>073-081>083-090>101-301200-
SOUTHEAST KANSAS

CITY           SKY/WX    TMP DP  RH WIND       PRES   REMARKS
CHANUTE        PTCLDY    22  20  92 N5        30.52F
COFFEYVILLE    CLEAR     26  23  88 N3        30.53S
HUTCHINSON     PTCLDY    22  18  85 NW5       30.52R
MEDICINE LODGE   N/A     21  18  88 N5        30.50S
NEWTON         MOCLDY    27  19  74 E5        30.52R
PARSONS        PTCLDY    25  22  88 NE5       30.53F
WICHITA INTL   MOCLDY    21  16  81 W3        30.52R
WICHITA JABRA  PTCLDY    25  23  92 CALM      30.52R
WINFIELD       PTCLDY    20  17  88 W3        30.54R
$$

KSZ007>012-019>026-033>040-048>060-102>105-301200-
NORTHEAST KANSAS

CITY           SKY/WX    TMP DP  RH WIND       PRES   REMARKS
CONCORDIA      PTCLDY    21  19  92 SE7       30.51S
EMPORIA        CLEAR     20  19  96 CALM      30.51F
LAWRENCE       CLEAR     14  11  87 NW6       30.55S
MANHATTAN      PTCLDY    17  14  88 CALM      30.53F
OLATHE IND     CLEAR     19  17  92 N6        30.54S
OLATHE EXE     FAIR      23  20  88 NW5       30.52S
SALINA         MOCLDY    23  17  78 CALM      30.53S
TOPEKA BILLARD PTCLDY    18  15  88 CALM      30.55F
TOPEKA FORBES  PTCLDY    21  17  84 CALM      30.53S
$$


USA.gov is the U.S. government's official web portal to all federal, state and local government web resources and services.